Location: Boiro
(42.6475°N, 8.8834°W)
Time: 07:28:57
(UTC+02:00)

BUGSAT 1 - Visible Passes

Search period start: 16 April 2024 00:00
Search period end: 26 April 2024 00:00
Orbit: 533 x 582 km, 98.1° (Epoch: 15 April)

Date Brightness Start Highest point End Pass type
(mag) Time Alt. Az. Time Alt. Az. Time Alt. Az.
16 Apr ? 22:25:19 10° S 22:29:06 51° W 22:32:58 10° NNW visible
17 Apr ? 22:23:18 10° S 22:27:07 54° W 22:31:02 10° NNW visible
18 Apr ? 22:21:17 10° S 22:25:08 58° W 22:29:04 10° NNW visible
19 Apr ? 22:19:15 10° S 22:23:08 62° WSW 22:27:06 10° NNW visible
20 Apr ? 22:17:13 10° S 22:21:07 66° W 22:25:06 10° NNW visible
21 Apr ? 22:15:10 10° S 22:19:05 71° WSW 22:23:05 10° NNW visible
22 Apr ? 22:13:06 10° S 22:17:02 76° WSW 22:21:04 10° NNW visible
23 Apr ? 22:11:02 10° S 22:14:58 81° WSW 22:19:01 10° NNW visible
24 Apr ? 22:08:57 10° SSE 22:12:54 86° WSW 22:16:57 10° NNW visible
25 Apr ? 22:06:52 10° SSE 22:10:49 89° ENE 22:14:52 10° NNW visible
